TimeHST,TemperatureF,Dew PointF,Humidity,Sea Level PressureIn,VisibilityMPH,Wind Direction,Wind SpeedMPH,Gust SpeedMPH,PrecipitationIn,Events,Conditions,WindDirDegrees,DateUTC
12:53 AM,66.9,63.0,87,30.03,10.0,WNW,6.9,-,N/A,,Partly Cloudy,290,2012-01-24 10:53:00
1:53 AM,66.0,63.0,90,30.01,10.0,WNW,6.9,-,N/A,,Scattered Clouds,290,2012-01-24 11:53:00
2:37 AM,66.2,62.6,88,30.01,10.0,WNW,6.9,-,N/A,,Mostly Cloudy,290,2012-01-24 12:37:00
2:53 AM,66.9,63.0,87,30.00,10.0,West,6.9,-,N/A,,Scattered Clouds,280,2012-01-24 12:53:00
3:53 AM,66.0,62.1,87,29.99,10.0,West,8.1,-,N/A,,Partly Cloudy,280,2012-01-24 13:53:00
4:32 AM,66.2,62.6,88,29.99,10.0,WNW,9.2,-,N/A,,Mostly Cloudy,290,2012-01-24 14:32:00
4:53 AM,66.0,61.0,84,29.99,10.0,West,10.4,-,N/A,,Scattered Clouds,280,2012-01-24 14:53:00
5:53 AM,64.9,61.0,87,30.00,10.0,West,8.1,-,N/A,,Clear,280,2012-01-24 15:53:00
6:53 AM,64.9,60.1,84,30.01,10.0,WNW,9.2,-,N/A,,Clear,290,2012-01-24 16:53:00
7:53 AM,66.0,60.1,81,30.03,10.0,West,9.2,-,N/A,,Clear,280,2012-01-24 17:53:00
8:53 AM,71.1,62.1,73,30.04,10.0,West,6.9,-,N/A,,Clear,270,2012-01-24 18:53:00
9:53 AM,75.9,66.0,71,30.07,10.0,Calm,Calm,-,N/A,,Clear,0,2012-01-24 19:53:00
10:53 AM,77.0,66.9,71,30.06,10.0,East,4.6,-,N/A,,Clear,80,2012-01-24 20:53:00
11:53 AM,77.0,66.9,71,30.05,10.0,ESE,8.1,-,N/A,,Clear,110,2012-01-24 21:53:00
12:53 PM,78.1,66.0,66,30.02,10.0,South,12.7,-,N/A,,Clear,170,2012-01-24 22:53:00
1:53 PM,78.1,64.9,64,29.99,10.0,South,11.5,-,N/A,,Clear,170,2012-01-24 23:53:00
2:53 PM,78.1,63.0,60,29.98,10.0,South,8.1,-,N/A,,Clear,170,2012-01-25 00:53:00
3:53 PM,79.0,62.1,56,29.98,10.0,South,8.1,-,N/A,,Clear,180,2012-01-25 01:53:00
4:53 PM,77.0,62.1,60,29.99,10.0,South,8.1,-,N/A,,Clear,190,2012-01-25 02:53:00
5:53 PM,75.0,64.0,69,30.01,10.0,SSW,5.8,-,N/A,,Clear,200,2012-01-25 03:53:00
6:53 PM,73.0,64.0,73,30.03,10.0,SSW,3.5,-,N/A,,Clear,200,2012-01-25 04:53:00
7:53 PM,73.9,64.9,73,30.04,10.0,West,3.5,-,N/A,,Scattered Clouds,280,2012-01-25 05:53:00
8:53 PM,71.1,64.0,78,30.05,10.0,Calm,Calm,-,N/A,,Mostly Cloudy,0,2012-01-25 06:53:00
9:48 PM,71.6,64.4,78,30.06,10.0,West,3.5,-,N/A,,Overcast,260,2012-01-25 07:48:00
9:53 PM,71.1,64.9,81,30.05,10.0,West,3.5,-,N/A,,Overcast,260,2012-01-25 07:53:00
10:19 PM,71.6,64.4,78,30.06,10.0,West,4.6,-,N/A,,Overcast,270,2012-01-25 08:19:00
10:33 PM,69.8,64.4,83,30.06,10.0,West,4.6,-,N/A,,Mostly Cloudy,280,2012-01-25 08:33:00
10:53 PM,70.0,64.9,84,30.05,10.0,West,3.5,-,N/A,,Mostly Cloudy,260,2012-01-25 08:53:00
11:20 PM,69.8,64.4,83,30.05,10.0,WSW,6.9,-,N/A,,Overcast,240,2012-01-25 09:20:00
11:42 PM,69.8,64.4,83,30.05,10.0,West,3.5,-,N/A,,Overcast,280,2012-01-25 09:42:00
11:53 PM,71.1,66.0,84,30.05,10.0,West,4.6,-,0.00,Rain,Light Rain,270,2012-01-25 09:53:00